Flag for Iceland Weather past 2 weeks in Keflavík, Iceland

Now
32 °F

Light snow. Overcast.


Feels Like: 24 °F
Forecast: 31 / 40 °F
Wind: 10 mph from Northwest

Location: Keflavikurflugvollur

Current Time: Oct 21, 2014 at 12:35:11 AM

Latest Report: Oct 21, 2014 at 12:00 AM


Visibility: N/A

Pressure: 29.45 "Hg

Humidity: 80%

Dew point: 27 °F

Location of KeflavíkLocation

Historic Weather in Keflavík — Graph

°F

Keflavík temperature yesterday

Maximum temperature yesterday: 39 °F (at 12:00 AM)
Minimum temperature yesterday: 30 °F (at 11:30 PM)
Average temperature yesterday: 36 °F

Past Weeks' High & Low Weather Summary

 TemperatureHumidityPressure
High57 °F (Oct 7, 3:00 PM)100% (Oct 20, 10:00 AM)30.09 "Hg (Oct 20, 10:00 AM)
Low30 °F (Oct 20, 11:30 PM)53% (Oct 11, 2:30 PM)28.85 "Hg (Oct 20, 6:30 AM)
Average42 °F78%29.74 "Hg
* Reported Oct 5 11:00 PM — Oct 20 11:30 PM, Keflavík, Weather by CustomWeather, © 2014

Note: Actual official high and low records may vary slightly from our data, if they occured in-between our weather recording intervals... More about our weather records

Advertising

Keflavík weather history for previous 24 hours

 ConditionsComfort  
Time TempWeatherWind HumidityBarometerVisibility
11:30 PM
Oct 20
30 °FPartly cloudy.10 mph80%29.45 "HgN/A
11:00 PM32 °FPartly cloudy.10 mph75%29.45 "HgN/A
10:30 PM32 °FPartly cloudy.16 mph75%29.45 "HgN/A
10:00 PM32 °FPartly cloudy.17 mph69%29.42 "HgN/A
9:30 PM32 °FPartly cloudy.22 mph69%29.42 "HgN/A
9:00 PM32 °FPassing clouds.24 mph64%29.39 "HgN/A
8:30 PM32 °FPartly cloudy.31 mph60%29.36 "HgN/A
8:00 PM32 °FPartly cloudy.31 mph60%29.36 "HgN/A
7:30 PM32 °FPassing clouds.30 mph60%29.33 "HgN/A
7:00 PM32 °FPassing clouds.33 mph60%29.30 "HgN/A
6:30 PM32 °FPartly cloudy.31 mph69%29.27 "HgN/A
6:00 PM34 °FPartly cloudy.30 mph70%29.24 "HgN/A
5:30 PM34 °FPartly sunny.30 mph75%29.24 "HgN/A
5:00 PM36 °FPartly sunny.29 mph70%29.21 "HgN/A
4:30 PM36 °FPartly sunny.32 mph70%29.15 "HgN/A
4:00 PM36 °FBroken clouds.32 mph75%29.15 "HgN/A
3:30 PM37 °FPartly sunny.33 mph75%29.12 "HgN/A
3:00 PM39 °FPartly sunny.35 mph81%29.06 "HgN/A
2:30 PM39 °FScattered clouds.31 mph81%29.03 "HgN/A
2:00 PM39 °FScattered clouds.29 mph87%29.03 "HgN/A
1:30 PM39 °FScattered clouds.25 mph75%29.00 "HgN/A
1:00 PM39 °FScattered showers. Broken clouds.24 mph81%28.97 "HgN/A
12:30 PM37 °FScattered showers. Broken clouds.12 mph93%28.97 "HgN/A
12:00 PM37 °FSprinkles. Broken clouds.14 mph93%28.94 "HgN/A
11:30 AM37 °FRain. Partly sunny.18 mph93%28.94 "Hg4 mi
11:00 AM37 °FLight rain. Partly sunny.13 mph93%28.91 "HgN/A
10:30 AM37 °FSprinkles. Partly sunny.9 mph93%28.88 "HgN/A
10:00 AM37 °FSprinkles. Broken clouds.7 mph100%28.88 "HgN/A
9:30 AM37 °FSprinkles. Broken clouds.8 mph93%28.88 "HgN/A
9:00 AM37 °FScattered showers. Broken clouds.7 mph93%28.85 "HgN/A
8:30 AM37 °FScattered showers. Partly cloudy.5 mph93%28.85 "HgN/A
8:00 AM37 °FScattered showers. Partly cloudy.2 mph93%28.85 "HgN/A
7:30 AM39 °FRain showers. Partly cloudy.1 mph93%28.85 "Hg5 mi
7:00 AM39 °FScattered showers. Partly cloudy.10 mph93%28.85 "HgN/A
6:30 AM39 °FScattered showers. Partly cloudy.16 mph93%28.85 "HgN/A
6:00 AM39 °FSprinkles. Partly cloudy.17 mph93%28.88 "HgN/A
5:00 AM39 °FScattered showers. Passing clouds.17 mph81%28.91 "HgN/A
3:00 AM37 °FScattered showers. Partly cloudy.20 mph81%29.00 "HgN/A
2:30 AM36 °FScattered showers. Partly cloudy.14 mph87%29.00 "HgN/A
2:00 AM36 °FScattered showers. Passing clouds.15 mph81%29.03 "HgN/A
1:30 AM39 °FScattered showers. Passing clouds.18 mph75%29.03 "HgN/A
1:00 AM36 °FScattered showers. Passing clouds.12 mph81%29.06 "HgN/A
12:30 AM37 °FScattered showers. Passing clouds.18 mph81%29.06 "HgN/A
12:00 AM39 °FScattered showers. Passing clouds.20 mph81%29.06 "HgN/A
Weather by CustomWeather, © 2014

See weather overviewHow to use our weather pages